This is the latest recevied weather packets stored in our database for station/object R1CBW-13. If no packets are shown the sender has not sent any weather packets the latest 10 day(s).
| Time | Temp. | Humidity | Pressure | Rain* | Wind** | Luminosity | Snow |
|---|---|---|---|---|---|---|---|
| 1778324373 | 12.22° C | 28% | 1027.2 hPa | 0 mm | - | - | - |
| 1778324313 | 11.67° C | 28% | 1027.3 hPa | 0 mm | - | - | - |
| 1778324193 | 11.67° C | 28% | 1027.3 hPa | 0 mm | - | - | - |
| 1778324133 | 12.22° C | 27% | 1027.3 hPa | 0 mm | - | - | - |
| 1778324073 | 12.22° C | 26% | 1027.3 hPa | 0 mm | - | - | - |
| 1778324013 | 12.22° C | 26% | 1027.3 hPa | 0 mm | - | - | - |
| 1778323953 | 11.67° C | 27% | 1027.5 hPa | 0 mm | - | - | - |
| 1778323893 | 11.67° C | 27% | 1027.5 hPa | 0 mm | - | - | - |
| 1778323833 | 11.67° C | 27% | 1027.4 hPa | 0 mm | - | - | - |
| 1778323773 | 12.22° C | 27% | 1027.3 hPa | 0 mm | - | - | - |
| 1778323713 | 11.67° C | 27% | 1027.3 hPa | 0 mm | - | - | - |
| 1778323653 | 11.67° C | 27% | 1027.4 hPa | 0 mm | - | - | - |
| 1778323593 | 11.67° C | 27% | 1027.4 hPa | 0 mm | - | - | - |
| 1778323533 | 11.67° C | 27% | 1027.4 hPa | 0 mm | - | - | - |
| 1778323473 | 11.11° C | 27% | 1027.5 hPa | 0 mm | - | - | - |
| 1778323413 | 12.22° C | 27% | 1027.6 hPa | 0 mm | - | - | - |
| 1778323353 | 12.22° C | 27% | 1027.5 hPa | 0 mm | - | - | - |
| 1778323293 | 12.22° C | 27% | 1027.4 hPa | 0 mm | - | - | - |
| 1778323233 | 11.67° C | 27% | 1027.5 hPa | 0 mm | - | - | - |
| 1778323173 | 11.67° C | 27% | 1027.6 hPa | 0 mm | - | - | - |
| 1778323113 | 11.67° C | 27% | 1027.6 hPa | 0 mm | - | - | - |
| 1778323053 | 11.67° C | 27% | 1027.7 hPa | 0 mm | - | - | - |
| 1778322993 | 11.11° C | 27% | 1027.5 hPa | 0 mm | - | - | - |
| 1778322933 | 11.67° C | 27% | 1027.5 hPa | 0 mm | - | - | - |
| 1778322873 | 11.67° C | 27% | 1027.4 hPa | 0 mm | - | - | - |
* Rain latest hour (hover to see other rain measurements)
** Current wind speed in m/s (hover to see current wind gust speed)